Regional Weather Roundup
Issued by NWS

Home | Current Version | Previous Version | Graphics & Text | Print | Product List | Glossary On
Versions: 1 2 3 4 5 6 7 8 9 10 11 12 13 14 15 16 17 18 19 20 21 22 23 24 25 26 27 28 29 30 31 32 33 34 35 36 37 38 39 40 41 42 43 44 45 46 47 48 49 50
000
ASUS43 KLOT 222303
RWRIL

ILLINOIS REGIONAL WEATHER ROUNDUP
NATIONAL WEATHER SERVICE CHICAGO/ROMEOVILLE IL
500 PM CST THU FEB 22 2018

NOTE: "FAIR" INDICATES FEW OR NO CLOUDS BELOW 12,000 FEET WITH NO
SIGNIFICANT WEATHER AND/OR OBSTRUCTIONS TO VISIBILITY.

* THESE STATIONS ARE NOT UNDER NWS QUALITY CONTROL. THEY ALSO MAY NOT
  REPORT WEATHER SUCH AS PRECIPITATION OR FOG.

ILZ001-002-007-009-015-016-024-230000-
NORTHWEST ILLINOIS

CITY           SKY/WX    TMP DP  RH WIND       PRES   REMARKS
MOLINE         CLOUDY    38  37  97 E6        30.36F FOG     WCI  33
STERLING*      CLOUDY    37  34  89 E8          N/A  WCI  31
SAVANNA*       CLOUDY    36  31  82 NE6       30.39F WCI  31
$$

ILZ003-004-008-010-011-017-018-230000-
NORTH CENTRAL ILLINOIS

CITY           SKY/WX    TMP DP  RH WIND       PRES   REMARKS
ROCKFORD       CLOUDY    35  29  78 E12       30.43R WCI  27
FREEPORT*      CLOUDY    34  30  83 E15       30.42S WCI  24
ROCHELLE*      CLOUDY    37  32  83 E9        30.41R WCI  30
DE KALB*       CLOUDY    36  31  81 E12       30.42R WCI  28
PERU*          CLOUDY    40  36  84 E8        30.40R
$$

ILZ005-006-012>014-019>023-230000-
NORTHEAST ILLINOIS

CITY           SKY/WX    TMP DP  RH WIND       PRES   REMARKS
CHICAGO-OHARE  CLOUDY    39  28  64 NE13      30.41R WCI  31
CHICAGO-MIDWAY CLOUDY    40  31  70 E13       30.41R
AURORA         CLOUDY    39  31  72 E12       30.40R WCI  32
LANSING*       CLOUDY    42  37  83 E8        30.38F
JOLIET*        CLOUDY    42  34  74 NE8       30.40R
WAUKEGAN       CLOUDY    36  30  79 NE10      30.43S WCI  28
DUPAGE AIRPORT CLOUDY    38  31  76 NE9G21    30.40R WCI  31
KANKAKEE*      CLOUDY    43  38  82 E15       30.37R
WHEELING       CLOUDY    38  29  70 NE9       30.44R WCI  31
MORRIS*        CLOUDY    41  34  77 NE5       30.39R
ROMEOVILLE*    CLOUDY    39  32  76 NE10      30.39R WCI  33
NORTHERLY ISL    N/A     36  30  79 NE12        N/A  WCI  28
$$

LMZ740>746-230000-
SOUTHERN LAKE MICHIGAN

STATION/POSITION SKY/WX   TEMP    WIND        PRES    VSBY  WAVE
                          AIR SEA DIR/SP/G                  HT/PER
                          (F)     (DEG/KT/KT) (MB)    (MI)  (FT/S)
HARRISON CRIB              36      50/ 13/ 15   N/A
BURNHAM HARBOR             36      30/  7/ 15   N/A
CALUMET HARBOR             35      50/ 11/ 15 1028.0F
BURNS HARBOR               42     110/ 19/ 23 1028.8F
MICHIGAN CITY              42      90/ 12/ 15   N/A
$$

ILZ025>027-034>036-040-047-049-050-058-095>099-230000-
WEST-CENTRAL ILLINOIS

CITY           SKY/WX    TMP DP  RH WIND       PRES   REMARKS
QUINCY         FOG       36  36 100 E7        30.29F VSB 1   WCI  30
GALESBURG*     FOG       38  38 100 NE6       30.36F VSB 3/4 WCI  33
MACOMB*        FOG       37  37  99 NE6       30.35F VSB 1/2 WCI  32
JACKSONVILLE*  FOG       39  39  99 CALM      30.33F VSB 3/4
PITTSFIELD*    CLOUDY    37  37 100 NE5       30.33F FOG     WCI  34
$$

ILZ028>032-037-038-041>044-048-051>054-059>061-230000-
CENTRAL ILLINOIS

CITY           SKY/WX    TMP DP  RH WIND       PRES   REMARKS
BLOOMINGTON    CLOUDY    42  41  96 SE9       30.36R FOG
DECATUR        CLOUDY    44  42  93 S6        30.37R FOG
PEORIA         FOG       42  41  96 E5        30.36F VSB 3/4
LACON*         CLOUDY    41  40  95 E7        30.37S FOG
LINCOLN*       DRIZZLE   43  43 100 SE6       30.37R
SPRINGFIELD    FOG       44  43  96 SE6       30.35S VSB 1
TAYLORVILLE    DRIZZLE   43  43  99 SE5       30.36R
$$

ILZ033-039-045-046-055>057-062-063-230000-
EAST-CENTRAL ILLINOIS

CITY           SKY/WX    TMP DP  RH WIND       PRES   REMARKS
CHAMPAIGN      CLOUDY    43  41  93 SE8       30.35R
DANVILLE*      CLOUDY    44  41  88 E14       30.28F
RANTOUL*       CLOUDY    45  44  95 SE7       30.34R
MATTOON        CLOUDY    44  42  93 VRB3      30.34R FOG
PARIS*         CLOUDY    43  42  95 E7        30.34S
$$

ILZ079-100>102-230000-
SOUTHWEST ILLINOIS

CITY           SKY/WX    TMP DP  RH WIND       PRES   REMARKS
ALTON          CLOUDY    43  43 100 CALM      30.32F FOG
BELLEVILLE     CLOUDY    45  42  91 CALM      30.31F
CAHOKIA*       CLOUDY    43  40  89 CALM      30.33F
SPARTA*        CLOUDY    45  45 100 CALM      30.34S
$$

ILZ064>066-069>071-074>076-080>082-084>086-088>090-092>094-230000-
SOUTH-CENTRAL ILLINOIS

CITY           SKY/WX    TMP DP  RH WIND       PRES   REMARKS
CARBONDALE     NOT AVBL
CAIRO*         CLOUDY    49  47  93 W5        30.33R
EFFINGHAM*     RAIN      46  46 100 CALM      30.37R VSB 1
MARION         CLOUDY    48  46  93 CALM      30.35R
MT. VERNON     CLOUDY    47  45  93 S7        30.35R
CENTRALIA*     CLOUDY    47  46  96 SW3       30.35R
SALEM*         CLOUDY    48  45  91 CALM      30.35R
METROPOLIS*    CLOUDY    50  47  89 NW5       30.33S
$$

ILZ067-068-072-073-078-083-087-091-230000-
SOUTHEAST ILLINOIS

CITY           SKY/WX    TMP DP  RH WIND       PRES   REMARKS
LAWRENCEVILLE  CLOUDY    47  46  97 E7        30.33R FOG
FLORA*         CLOUDY    48  47  95 S3        30.36R FOG
FAIRFIELD*     CLOUDY    47  47 100 CALM      30.34R FOG
HARRISBURG*    CLOUDY    49  47  95 CALM      30.35R
ROBINSON*      CLOUDY    45  44  97 E7        30.34R FOG
CARMI*         CLOUDY    49  48  94 SW7       30.34R
$$

ABBREVIATIONS USED IN REMARKS
   TC - TEMPERATURE IN CELSIUS
  WCI - WIND CHILL INDEX
   HX - HEAT INDEX
  VSB - VISIBILITY
$$





USA.gov is the U.S. government's official web portal to all federal, state and local government web resources and services.